Weather History for Pensacola, FL

Change the Weather History Date:

Friday, January 4, 2013

  Actual Average Record
Temperature  
Mean Temperature 47 °F 51 °F  
Max Temperature 58 °F 60 °F 78 °F (1972)
Min Temperature 36 °F 42 °F 17 °F (1919)
Degree Days  
Heating Degree Days 18 14  
Month to date heating degree days 51 56  
Since 1 July heating degree days 495 638  
Cooling Degree Days 0 0  
Month to date cooling degree days 1 0  
Year to date cooling degree days 1 0  
Moisture  
Dew Point 30 °F    
Average Humidity 55    
Maximum Humidity 76    
Minimum Humidity 33    
Precipitation  
Precipitation 0.00 in 0.13 in 2.18 in (1881)
Month to date precipitation 0.35 0.54  
Year to date precipitation 0.35 0.54  
Snow  
Snow 0.00 in 0.00 in 0.00 in (2002)
Month to date snowfall 0.0 0.0  
Since 1 July snowfall 0.0 0.0  
Snow Depth 0.00 in    
Sea Level Pressure  
Sea Level Pressure 30.36 in    
Wind  
Wind Speed 7 mph (North)    
Max Wind Speed 14 mph    
Max Gust Speed 18 mph    
Visibility 10 miles    
Events      
T = Trace of Precipitation, MM = Missing Value Source: NWS Daily Summary

Daily Weather History Graph

Daily Weather History Graph

Search for Another Location

Airport:

Trip Planner

Search our weather history database for the weather conditions in past years. The results will help you decide how hot, cold, wet, or windy it might be!

Date:

Astronomy

Jan. 04, 2013 Rise Set
Actual Time 6:46 AM CST 5:01 PM CST
Civil Twilight 6:20 AM CST 5:27 PM CST
Nautical Twilight 5:50 AM CST 5:57 PM CST
Astronomical Twilight 5:20 AM CST 6:26 PM CST
Moon No Moon Rise 11:00 AM CST (1/4)
Length of Visible Light 11h 07m
Length of Day
10h 15m
Waning Gibbous, 55% of the Moon is Illuminated
Jan 4
Waning Gibbous
Jan 4
Last Quarter
Jan 11
New
Jan 18
First Quarter
Jan 26
Full

Hourly Weather History & Observations

Time (CST) Temp. Windchill Dew Point Humidity Pressure Visibility Wind Dir Wind Speed Gust Speed Precip Events Conditions
12:53 AM 37.9 °F 32.1 °F 28.9 °F 70% 30.34 in 10.0 mi North 8.1 mph - N/A   Clear
1:53 AM 39.0 °F 34.8 °F 28.9 °F 67% 30.33 in 10.0 mi NNE 5.8 mph - N/A   Clear
2:53 AM 39.0 °F 33.4 °F 28.9 °F 67% 30.34 in 10.0 mi North 8.1 mph - N/A   Clear
3:53 AM 37.9 °F 31.5 °F 28.9 °F 70% 30.33 in 10.0 mi North 9.2 mph - N/A   Clear
4:53 AM 37.4 °F 30.8 °F 28.4 °F 70% 30.33 in 10.0 mi North 9.2 mph - N/A   Clear
5:53 AM 37.0 °F 34.5 °F 28.0 °F 70% 30.35 in 10.0 mi North 3.5 mph - N/A   Clear
6:53 AM 36.0 °F 32.1 °F 28.9 °F 76% 30.39 in 10.0 mi North 4.6 mph - N/A   Clear
7:53 AM 39.9 °F 33.4 °F 30.0 °F 68% 30.39 in 10.0 mi North 10.4 mph - N/A   Clear
8:53 AM 42.1 °F 35.2 °F 30.0 °F 62% 30.40 in 10.0 mi NNE 12.7 mph - N/A   Clear
9:53 AM 46.0 °F 40.6 °F 30.0 °F 54% 30.42 in 10.0 mi North 11.5 mph - N/A   Clear
10:53 AM 48.9 °F - 28.9 °F 46% 30.41 in 10.0 mi North 8.1 mph - N/A   Clear
11:53 AM 51.1 °F - 28.9 °F 43% 30.38 in 10.0 mi North 10.4 mph - N/A   Clear
12:53 PM 54.0 °F - 27.0 °F 35% 30.35 in 10.0 mi North 12.7 mph 18.4 mph N/A   Clear
1:53 PM 57.0 °F - 28.9 °F 34% 30.33 in 10.0 mi North 11.5 mph - N/A   Clear
2:53 PM 57.0 °F - 28.0 °F 33% 30.32 in 10.0 mi North 8.1 mph - N/A   Clear
3:53 PM 55.0 °F - 28.0 °F 35% 30.34 in 10.0 mi North 5.8 mph - N/A   Clear
4:53 PM 52.0 °F - 33.1 °F 49% 30.35 in 10.0 mi North 3.5 mph - N/A   Clear
5:53 PM 48.9 °F - 34.0 °F 56% 30.37 in 10.0 mi North 3.5 mph - N/A   Clear
6:53 PM 46.9 °F - 33.1 °F 59% 30.39 in 10.0 mi Calm Calm - N/A   Clear
7:53 PM 44.6 °F 42.2 °F 35.6 °F 71% 30.38 in 10.0 mi NNW 4.6 mph - N/A   Clear
8:53 PM 46.0 °F 43.1 °F 34.0 °F 63% 30.38 in 10.0 mi North 5.8 mph - N/A   Clear
9:53 PM 43.0 °F 41.3 °F 35.1 °F 74% 30.38 in 10.0 mi North 3.5 mph - N/A   Clear
10:53 PM 46.0 °F 43.9 °F 32.0 °F 58% 30.37 in 10.0 mi NNE 4.6 mph - N/A   Clear
11:53 PM 46.0 °F 43.1 °F 32.0 °F 58% 30.36 in 10.0 mi North 5.8 mph - N/A   Clear